Hourly Weather Bolshie Ryabinki

Today, 23 July, Friday

Time Temperature Precipitation Wind Pressure Humidity
00:00 +13°C° 0 mm 2 mps 740 mmHg 73%
01:00 +12°C° 0 mm 2 mps 740 mmHg 73%
02:00 +12°C° 0 mm 2 mps 740 mmHg 74%
03:00 +12°C° 0 mm 2 mps 740 mmHg 74%
04:00 +12°C° 0 mm 2 mps 740 mmHg 74%
05:00 +12°C° 0 mm 2 mps 740 mmHg 74%
06:00 +14°C° 0 mm 2 mps 740 mmHg 69%
07:00 +17°C° 0 mm 3 mps 740 mmHg 64%
08:00 +19°C° 0 mm 3 mps 740 mmHg 58%
09:00 +20°C° 0 mm 3 mps 740 mmHg 55%
10:00 +21°C° 0 mm 4 mps 740 mmHg 52%
11:00 +23°C° 0 mm 4 mps 740 mmHg 49%
12:00 +23°C° 0 mm 4 mps 739 mmHg 49%
13:00 +25°C° 0 mm 5 mps 739 mmHg 49%
14:00 +25°C° 0 mm 5 mps 739 mmHg 48%
15:00 +23°C° 0 mm 4 mps 739 mmHg 53%
16:00 +22°C° 0 mm 4 mps 739 mmHg 59%
17:00 +21°C° 0 mm 3 mps 739 mmHg 64%
18:00 +20°C° 0 mm 3 mps 739 mmHg 68%
19:00 +19°C° 0 mm 3 mps 739 mmHg 72%
20:00 +18°C° 0 mm 2 mps 739 mmHg 75%
21:00 +17°C° 0 mm 2 mps 739 mmHg 77%
22:00 +17°C° 0 mm 2 mps 740 mmHg 79%
23:00 +16°C° 0 mm 2 mps 740 mmHg 81%

Tomorrow, 24 July, Saturday

Time Temperature Precipitation Wind Pressure Humidity
00:00 +16°C° 0 mm 2 mps 740 mmHg 82%
01:00 +16°C° 0 mm 2 mps 740 mmHg 83%
02:00 +16°C° 0 mm 2 mps 740 mmHg 85%
03:00 +15°C° 0 mm 2 mps 740 mmHg 86%
04:00 +15°C° 0 mm 2 mps 741 mmHg 87%
05:00 +15°C° 0 mm 2 mps 741 mmHg 88%
06:00 +16°C° 0 mm 2 mps 741 mmHg 80%
07:00 +18°C° 0 mm 2 mps 741 mmHg 71%
08:00 +19°C° 0 mm 2 mps 742 mmHg 63%
09:00 +20°C° 0 mm 2 mps 742 mmHg 59%
10:00 +21°C° 0 mm 2 mps 742 mmHg 55%
11:00 +21°C° 0 mm 2 mps 743 mmHg 51%
12:00 +23°C° 0 mm 2 mps 743 mmHg 49%
13:00 +22°C° 0 mm 3 mps 743 mmHg 46%
14:00 +24°C° 0 mm 3 mps 743 mmHg 44%
15:00 +24°C° 0 mm 3 mps 743 mmHg 48%
16:00 +22°C° 0 mm 3 mps 743 mmHg 51%
17:00 +23°C° 0 mm 2 mps 743 mmHg 55%
18:00 +20°C° 0 mm 2 mps 744 mmHg 57%
19:00 +19°C° 0 mm 2 mps 744 mmHg 59%
20:00 +19°C° 0 mm 1 mps 744 mmHg 60%
21:00 +18°C° 0 mm 1 mps 745 mmHg 60%
22:00 +18°C° 0 mm 1 mps 745 mmHg 60%
23:00 +18°C° 0 mm 1 mps 745 mmHg 60%

Day after tomorrow, 25 July, Sunday

Time Temperature Precipitation Wind Pressure Humidity
00:00 +16°C° 0 mm 1 mps 745 mmHg 61%
01:00 +16°C° 0 mm 1 mps 746 mmHg 61%
02:00 +16°C° 0 mm 1 mps 746 mmHg 61%
03:00 +16°C° 0 mm 1 mps 746 mmHg 63%
04:00 +16°C° 0 mm 1 mps 746 mmHg 64%
05:00 +16°C° 0 mm 1 mps 747 mmHg 65%
06:00 +18°C° 0 mm 1 mps 747 mmHg 64%
07:00 +19°C° 0 mm 1 mps 747 mmHg 63%
08:00 +19°C° 0 mm 1 mps 747 mmHg 62%
09:00 +20°C° 0 mm 1 mps 747 mmHg 59%
10:00 +20°C° 0 mm 2 mps 748 mmHg 55%
11:00 +21°C° 0 mm 2 mps 748 mmHg 51%
12:00 +23°C° 0 mm 2 mps 748 mmHg 49%
13:00 +23°C° 0 mm 2 mps 748 mmHg 47%
14:00 +24°C° 0 mm 2 mps 748 mmHg 45%
15:00 +24°C° 0 mm 1 mps 748 mmHg 46%
16:00 +24°C° 0 mm 1 mps 748 mmHg 48%
17:00 +24°C° 0 mm 1 mps 748 mmHg 49%
18:00 +22°C° 0 mm 1 mps 748 mmHg 53%
19:00 +20°C° 0 mm 1 mps 748 mmHg 57%
20:00 +18°C° 0 mm 1 mps 748 mmHg 62%
21:00 +18°C° 0 mm 1 mps 748 mmHg 62%
22:00 +18°C° 0 mm 1 mps 749 mmHg 63%
23:00 +16°C° 0 mm 1 mps 749 mmHg 63%

26 July, Monday

Time Temperature Precipitation Wind Pressure Humidity
00:00 +16°C° 0 mm 1 mps 749 mmHg 64%
01:00 +16°C° 0 mm 1 mps 749 mmHg 64%
02:00 +16°C° 0 mm 2 mps 749 mmHg 64%
03:00 +16°C° 0 mm 2 mps 749 mmHg 65%
04:00 +16°C° 0 mm 2 mps 749 mmHg 66%
05:00 +16°C° 0 mm 2 mps 750 mmHg 68%
06:00 +18°C° 0 mm 2 mps 750 mmHg 63%
07:00 +20°C° 0 mm 2 mps 750 mmHg 59%
08:00 +21°C° 0 mm 2 mps 750 mmHg 54%
09:00 +24°C° 0 mm 2 mps 750 mmHg 49%
10:00 +25°C° 0 mm 2 mps 750 mmHg 45%
11:00 +26°C° 0 mm 2 mps 750 mmHg 40%
12:00 +26°C° 0 mm 1 mps 750 mmHg 39%
13:00 +26°C° 0 mm 1 mps 750 mmHg 38%
14:00 +27°C° 0 mm 1 mps 750 mmHg 37%
15:00 +26°C° 0 mm 1 mps 750 mmHg 41%
16:00 +26°C° 0 mm 1 mps 750 mmHg 44%
17:00 +26°C° 0 mm 1 mps 750 mmHg 48%
18:00 +24°C° 0 mm 1 mps 750 mmHg 52%
19:00 +22°C° 0 mm 1 mps 750 mmHg 56%
20:00 +20°C° 0 mm 1 mps 749 mmHg 60%
21:00 +20°C° 0 mm 1 mps 750 mmHg 61%
22:00 +19°C° 0 mm 1 mps 750 mmHg 63%
23:00 +19°C° 0 mm 1 mps 750 mmHg 64%

27 July, Tuesday

Time Temperature Precipitation Wind Pressure Humidity
00:00 +18°C° 0 mm 1 mps 750 mmHg 65%
01:00 +18°C° 0 mm 1 mps 750 mmHg 66%
02:00 +16°C° 0 mm 1 mps 750 mmHg 67%
03:00 +16°C° 0 mm 1 mps 750 mmHg 67%
04:00 +16°C° 0 mm 1 mps 750 mmHg 68%
05:00 +16°C° 0 mm 1 mps 750 mmHg 68%
06:00 +19°C° 0 mm 1 mps 750 mmHg 63%
07:00 +21°C° 0 mm 1 mps 750 mmHg 58%
08:00 +23°C° 0 mm 1 mps 750 mmHg 53%
09:00 +25°C° 0 mm 1 mps 750 mmHg 49%
10:00 +26°C° 0 mm 1 mps 750 mmHg 45%
11:00 +27°C° 0 mm 1 mps 750 mmHg 41%
12:00 +27°C° 0 mm 1 mps 750 mmHg 39%
13:00 +28°C° 0 mm 1 mps 749 mmHg 37%
14:00 +28°C° 0 mm 1 mps 749 mmHg 36%
15:00 +28°C° 0 mm 1 mps 749 mmHg 38%
16:00 +28°C° 0 mm 1 mps 749 mmHg 40%
17:00 +28°C° 0 mm 1 mps 748 mmHg 43%
18:00 +26°C° 0 mm 1 mps 748 mmHg 47%
19:00 +23°C° 0 mm 1 mps 748 mmHg 52%
20:00 +19°C° 0 mm 0 mps 748 mmHg 56%
21:00 +21°C° 0 mm 1 mps 748 mmHg 58%
22:00 +20°C° 0 mm 1 mps 748 mmHg 59%
23:00 +19°C° 0 mm 1 mps 748 mmHg 61%

28 July, Wednesday

Time Temperature Precipitation Wind Pressure Humidity
00:00 +18°C° 0 mm 2 mps 748 mmHg 62%
01:00 +18°C° 0 mm 2 mps 748 mmHg 63%
02:00 +17°C° 0 mm 2 mps 747 mmHg 64%
03:00 +17°C° 0 mm 2 mps 747 mmHg 65%
04:00 +17°C° 0 mm 2 mps 747 mmHg 67%
05:00 +17°C° 0 mm 3 mps 747 mmHg 69%
06:00 +19°C° 0 mm 3 mps 747 mmHg 64%
07:00 +21°C° 0 mm 3 mps 747 mmHg 60%
08:00 +24°C° 0 mm 3 mps 747 mmHg 55%
09:00 +25°C° 0 mm 4 mps 746 mmHg 52%
10:00 +26°C° 0 mm 5 mps 746 mmHg 49%
11:00 +27°C° 0 mm 5 mps 746 mmHg 46%
12:00 +26°C° 0 mm 5 mps 746 mmHg 53%
13:00 +23°C° 0 mm 5 mps 745 mmHg 61%
14:00 +21°C° 0 mm 5 mps 745 mmHg 68%
15:00 +20°C° 0.4 mm 4 mps 745 mmHg 76%
16:00 +19°C° 0.4 mm 4 mps 744 mmHg 83%
17:00 +18°C° 0.4 mm 4 mps 744 mmHg 91%
18:00 +18°C° 0.1 mm 4 mps 743 mmHg 91%
19:00 +18°C° 0.1 mm 4 mps 743 mmHg 90%
20:00 +17°C° 0.1 mm 5 mps 742 mmHg 90%
21:00 +17°C° 0.1 mm 5 mps 742 mmHg 88%
22:00 +17°C° 0.1 mm 5 mps 741 mmHg 87%
23:00 +17°C° 0.1 mm 5 mps 741 mmHg 85%
Show more

We Need Your Consent

Meteoprog and our Service Providers may store and access personal data such as cookies, device identifiers or other similar technologies on your device and process such data to personalise content and ads, as well as provide social media features and to analyse the traffic.

  • Store and/or access information on your device

    Cookies, device identifiers or other information can be stored or accessed on your device for the purposes indicated above.

  • Personalised ads and content, ad and content measurement, audience insights, and products development

    Ads and content can be personalised based on a profile. More data can be added to better personalise ads and content. Ad and content performance can be measured. Insights about the audience who saw the ads and content can be derived. Such data can be used to develop or improve user’s experience, systems and software.

By clicking ‘I Agree’ you will allow the use of indicated cookies, device identifiers, web beacons or other similar technologies. Your settings can be changed in the browser on your device.

For certain purposes, legitimate interests may be relied on, rather than consent. You can read more about this in our Privacy and Cookie Policy.